Location: Charbonni�res
(45.9952°N, 2.9982°E)
Time: 17:16:18
(UTC+00:00)

Cosmos 1151 Rocket - Pass Details

Date: 29 November 2020
Orbit: 593 x 615 km, 82.5° (Epoch: 17 January)

Event Time Altitude Azimuth Distance (km) Brightness Sun altitude
Exits shadow 04:17:03 36° 130° (SE) 953 4.3 -28.9°
Drops below altitude 10° 04:19:52 10° 154° (SSE) 1,933 5.9 -28.4°
Sets 04:22:07 0° 160° (SSE) 2,834 6.7 -28.0°
